Weather History for KJYM - October, 2011

Change the Weather History Date:

Sunday, October 30, 2011

  Actual Average Record
Temperature  
Mean Temperature 39 °F -  
Max Temperature 50 °F 55 °F 76 °F (1950)
Min Temperature 28 °F 33 °F 15 °F (1966)
Degree Days  
Heating Degree Days 26    
Moisture  
Dew Point 31 °F    
Average Humidity 76    
Maximum Humidity 100    
Minimum Humidity 43    
Precipitation  
Precipitation 0.00 in - - ()
Sea Level Pressure  
Sea Level Pressure 30.14 in    
Wind  
Wind Speed 3 mph (SSE)    
Max Wind Speed 13 mph    
Max Gust Speed 18 mph    
Visibility 8 miles    
Events      
Averages and records for this station are not official NWS values.
T = Trace of Precipitation, MM = Missing Value Source: NWS Daily Summary

Daily Weather History Graph

Daily Weather History Graph

Search for Another Location

Airport or City:

Trip Planner

Search our weather history database for the weather conditions in past years. The results will help you decide how hot, cold, wet, or windy it might be!

Date:

Astronomy

Oct. 30, 2011 Rise Set
Actual Time 8:08 AM EDT 6:35 PM EDT
Civil Twilight 7:39 AM EDT 7:04 PM EDT
Nautical Twilight 7:06 AM EDT 7:36 PM EDT
Astronomical Twilight 6:33 AM EDT 8:09 PM EDT
Moon 12:29 PM EDT (10/30) 10:00 PM EDT (10/30)
Length of Visible Light 11h 24m
Length of Day
10h 27m
Waxing Crescent, 20% of the Moon is Illuminated
Oct 30
Waxing Crescent
Nov 2
First Quarter
Nov 10
Full
Nov 18
Last Quarter
Nov 25
New

Hourly Weather History & Observations

Time (EDT) Temp. Windchill Dew Point Humidity Pressure Visibility Wind Dir Wind Speed Gust Speed Precip Events Conditions
12:15 AM 33.8 °F - 33.8 °F 100% 30.11 in 7.0 mi Calm Calm - N/A   Clear
12:34 AM 33.8 °F - 32.0 °F 93% 30.11 in 5.0 mi Calm Calm - N/A   Clear
12:55 AM 33.8 °F - 32.0 °F 93% 30.11 in 10.0 mi Calm Calm - N/A   Clear
1:15 AM 33.8 °F - 32.0 °F 93% 30.11 in 10.0 mi Calm Calm - N/A   Clear
1:34 AM 30.2 °F - 30.2 °F 100% 30.11 in 5.0 mi Calm Calm - N/A   Clear
1:55 AM 32.0 °F - 30.2 °F 93% 30.12 in 5.0 mi Calm Calm - N/A   Clear
2:14 AM 33.8 °F - 30.2 °F 87% 30.12 in 7.0 mi Calm Calm - N/A   Clear
2:34 AM 32.0 °F - 30.2 °F 93% 30.12 in 5.0 mi Calm Calm - N/A   Clear
2:54 AM 32.0 °F - 30.2 °F 93% 30.12 in 5.0 mi Calm Calm - N/A   Clear
3:14 AM 32.0 °F - 30.2 °F 93% 30.13 in 5.0 mi Calm Calm - N/A   Clear
3:55 AM 32.0 °F - 30.2 °F 93% 30.13 in 7.0 mi Calm Calm - N/A   Clear
4:14 AM 30.2 °F - 28.4 °F 93% 30.13 in 5.0 mi Calm Calm - N/A   Clear
4:35 AM 30.2 °F - 30.2 °F 100% 30.13 in 5.0 mi Calm Calm - N/A   Clear
4:54 AM 30.2 °F - 28.4 °F 93% 30.14 in 4.0 mi Calm Calm - N/A   Clear
5:35 AM 28.4 °F - 28.4 °F 100% 30.14 in 7.0 mi Calm Calm - N/A   Clear
5:54 AM 28.4 °F - 26.6 °F 93% 30.15 in 4.0 mi Calm Calm - N/A   Clear
6:35 AM 28.4 °F - 28.4 °F 100% 30.16 in 5.0 mi Calm Calm - N/A   Clear
6:54 AM 30.2 °F - 28.4 °F 93% 30.15 in 7.0 mi Calm Calm - N/A   Clear
7:14 AM 30.2 °F - 28.4 °F 93% 30.16 in 7.0 mi Calm Calm - N/A   Clear
7:35 AM 28.4 °F - 26.6 °F 93% 30.16 in 7.0 mi Calm Calm - N/A   Clear
7:54 AM 28.4 °F - 28.4 °F 100% 30.17 in 7.0 mi Calm Calm - N/A   Clear
8:15 AM 28.4 °F - 26.6 °F 93% 30.17 in 5.0 mi Calm Calm - N/A   Clear
8:34 AM 28.4 °F - 28.4 °F 100% 30.18 in 7.0 mi Calm Calm - N/A   Clear
8:54 AM 30.2 °F - 28.4 °F 93% 30.18 in 7.0 mi Calm Calm - N/A   Clear
9:15 AM 33.8 °F 30.8 °F 32.0 °F 93% 30.19 in 10.0 mi South 3.5 mph - N/A   Clear
9:35 AM 37.4 °F 34.9 °F 35.6 °F 93% 30.19 in 10.0 mi South 3.5 mph - N/A   Clear
9:54 AM 39.2 °F 37.0 °F 35.6 °F 87% 30.19 in 10.0 mi South 3.5 mph - N/A   Clear
10:15 AM 42.8 °F 38.6 °F 37.4 °F 81% 30.19 in 10.0 mi South 6.9 mph - N/A   Clear
10:34 AM 42.8 °F 38.0 °F 35.6 °F 76% 30.19 in 10.0 mi South 8.1 mph - N/A   Clear
10:54 AM 44.6 °F 40.7 °F 35.6 °F 71% 30.19 in 10.0 mi SSE 6.9 mph - N/A   Clear
11:14 AM 44.6 °F 40.2 °F 33.8 °F 66% 30.19 in 10.0 mi South 8.1 mph - N/A   Clear
11:34 AM 46.4 °F 42.4 °F 33.8 °F 62% 30.19 in 10.0 mi South 8.1 mph - N/A   Clear
11:55 AM 46.4 °F 42.4 °F 32.0 °F 57% 30.18 in 10.0 mi South 8.1 mph - N/A   Clear
12:14 PM 46.4 °F 41.1 °F 33.8 °F 62% 30.18 in 10.0 mi South 11.5 mph 18.4 mph N/A   Clear
12:34 PM 48.2 °F - 33.8 °F 58% 30.18 in 10.0 mi South 9.2 mph - N/A   Scattered Clouds
12:55 PM 48.2 °F - 33.8 °F 58% 30.17 in 10.0 mi South 10.4 mph 18.4 mph N/A   Mostly Cloudy
1:34 PM 48.2 °F - 30.2 °F 50% 30.15 in 10.0 mi SSE 11.5 mph - N/A   Mostly Cloudy
1:55 PM 48.2 °F - 30.2 °F 50% 30.14 in 10.0 mi South 9.2 mph 16.1 mph N/A   Overcast
2:14 PM 48.2 °F - 30.2 °F 50% 30.13 in 10.0 mi South 10.4 mph 18.4 mph N/A   Overcast
2:35 PM 48.2 °F - 30.2 °F 50% 30.12 in 10.0 mi South 12.7 mph - N/A   Overcast
3:14 PM 50.0 °F - 30.2 °F 47% 30.11 in 10.0 mi South 8.1 mph - N/A   Mostly Cloudy
3:35 PM 50.0 °F - 28.4 °F 43% 30.10 in 10.0 mi SSE 12.7 mph - N/A   Mostly Cloudy
3:55 PM 48.2 °F - 30.2 °F 50% 30.10 in 10.0 mi SSE 8.1 mph - N/A   Mostly Cloudy
4:35 PM 50.0 °F - 30.2 °F 47% 30.08 in 10.0 mi SSE 9.2 mph - N/A   Mostly Cloudy
4:54 PM 48.2 °F - 30.2 °F 50% 30.09 in 10.0 mi SE 11.5 mph 16.1 mph N/A   Mostly Cloudy
5:14 PM 48.2 °F - 30.2 °F 50% 30.08 in 10.0 mi SSE 6.9 mph - N/A   Mostly Cloudy
5:35 PM 48.2 °F - 32.0 °F 54% 30.07 in 10.0 mi SE 9.2 mph - N/A   Overcast
5:54 PM 48.2 °F - 32.0 °F 54% 30.07 in 10.0 mi SE 8.1 mph - N/A   Overcast
6:14 PM 48.2 °F - 33.8 °F 58% 30.07 in 10.0 mi SE 6.9 mph - N/A   Overcast
6:35 PM 48.2 °F - 33.8 °F 58% 30.07 in 10.0 mi SE 8.1 mph - N/A   Overcast
7:14 PM 48.2 °F - 33.8 °F 58% 30.09 in 10.0 mi SE 4.6 mph - N/A   Overcast
7:35 PM 48.2 °F - 33.8 °F 58% 30.09 in 10.0 mi ESE 6.9 mph - N/A   Overcast
7:54 PM 48.2 °F - 33.8 °F 58% 30.09 in 10.0 mi SE 5.8 mph - N/A   Overcast
8:15 PM 48.2 °F - 33.8 °F 58% 30.09 in 10.0 mi SE 6.9 mph - N/A   Overcast
8:34 PM 48.2 °F - 33.8 °F 58% 30.09 in 10.0 mi SSE 8.1 mph - N/A   Overcast
8:54 PM 48.2 °F - 33.8 °F 58% 30.09 in 10.0 mi SSE 8.1 mph - N/A   Overcast
9:15 PM 48.2 °F - 33.8 °F 58% 30.09 in 10.0 mi South 5.8 mph - N/A   Overcast
9:34 PM 48.2 °F - 33.8 °F 58% 30.09 in 10.0 mi SSW 13.8 mph 18.4 mph N/A   Overcast
9:54 PM 48.2 °F - 35.6 °F 62% 30.09 in 10.0 mi SSW 10.4 mph - N/A   Light Drizzle
10:15 PM 48.2 °F - 35.6 °F 62% 30.09 in 10.0 mi South 6.9 mph - N/A Rain Light Rain
10:34 PM 48.2 °F - 35.6 °F 62% 30.09 in 10.0 mi South 4.6 mph - N/A   Overcast
11:15 PM 48.2 °F - 35.6 °F 62% 30.08 in 10.0 mi SE 3.5 mph - N/A   Overcast
11:34 PM 48.2 °F - 33.8 °F 58% 30.08 in 10.0 mi SSE 4.6 mph - N/A   Overcast
11:54 PM 48.2 °F - 33.8 °F 58% 30.07 in 10.0 mi SSE 4.6 mph - N/A   Overcast